Wisconsin Rapids, WI

1:33 AM CDT on April 29, 2017 (GMT -0500)
Alexander Field South Wood County

Weather History for KISW - September, 2014

Change the Weather History Date:

Thursday, September 4, 2014

  Actual Average Record
Temperature  
Mean Temperature 74 °F -  
Max Temperature 82 °F 76 °F 95 °F (1948)
Min Temperature 66 °F 50 °F 32 °F (1974)
Cooling Degree Days 8    
Growing Degree Days 24 (Base 50)    
Moisture  
Dew Point 68 °F    
Average Humidity 87    
Maximum Humidity 97    
Minimum Humidity 60    
Precipitation  
Precipitation 0.32 in - - ()
Sea Level Pressure  
Sea Level Pressure 29.84 in    
Wind  
Wind Speed 8 mph (SSE)    
Max Wind Speed 20 mph    
Max Gust Speed 29 mph    
Visibility 9 miles    
Events Rain , Thunderstorm    
Averages and records for this station are not official NWS values.
T = Trace of Precipitation, MM = Missing Value Source: NWS Daily Summary

Daily Weather History Graph

Daily Weather History Graph

Search for Another Location

Airport or City:

Trip Planner

Search our weather history database for the weather conditions in past years. The results will help you decide how hot, cold, wet, or windy it might be!

Date:

Astronomy

Sep. 04, 2014 Rise Set
Actual Time 6:25 AM CDT 7:30 PM CDT
Civil Twilight 5:55 AM CDT 7:59 PM CDT
Nautical Twilight 5:20 AM CDT 8:35 PM CDT
Astronomical Twilight 4:42 AM CDT 9:12 PM CDT
Moon 4:14 PM CDT (9/4) 1:09 AM CDT (9/4)
Length of Visible Light 14h 03m
Length of Day
13h 04m
Waxing Gibbous, 74% of the Moon is Illuminated
Sep 4
Waxing Gibbous
Sep 8
Full
Sep 15
Last Quarter
Sep 24
New
Oct 1
First Quarter

Hourly Weather History & Observations

Time (CDT) Temp. Heat Index Dew Point Humidity Pressure Visibility Wind Dir Wind Speed Gust Speed Precip Events Conditions
12:54 AM 73.0 °F - 64.9 °F 76% 29.86 in 10.0 mi SSW 9.2 mph - 0.00 in Rain Light Rain
1:43 AM 68.0 °F - 66.0 °F 93% 29.88 in 10.0 mi Calm Calm - 0.00 in   Overcast
1:54 AM 68.0 °F - 66.0 °F 93% 29.86 in 10.0 mi ESE 4.6 mph - 0.01 in   Overcast
2:30 AM 66.9 °F - 66.0 °F 97% 29.85 in 10.0 mi South 9.2 mph - N/A   Mostly Cloudy
2:54 AM 68.0 °F - 66.0 °F 93% 29.82 in 10.0 mi South 8.1 mph - N/A   Clear
3:54 AM 69.1 °F - 66.9 °F 93% 29.81 in 10.0 mi South 8.1 mph - N/A   Clear
4:54 AM 69.1 °F - 66.0 °F 90% 29.81 in 10.0 mi South 8.1 mph - N/A   Partly Cloudy
5:16 AM 69.1 °F - 66.9 °F 93% 29.82 in 10.0 mi South 6.9 mph - N/A   Mostly Cloudy
5:54 AM 69.1 °F - 66.9 °F 93% 29.78 in 10.0 mi South 4.6 mph - N/A   Mostly Cloudy
6:29 AM 70.0 °F - 66.9 °F 90% 29.81 in 10.0 mi South 4.6 mph - N/A   Overcast
6:54 AM 70.0 °F - 66.9 °F 90% 29.81 in 10.0 mi South 3.5 mph - N/A   Overcast
7:09 AM 70.0 °F - 68.0 °F 93% 29.84 in 10.0 mi South 5.8 mph - 0.00 in Rain Light Rain
7:44 AM 72.0 °F - 68.0 °F 87% 29.84 in 10.0 mi South 12.7 mph - 0.01 in   Overcast
7:54 AM 72.0 °F - 66.9 °F 84% 29.83 in 10.0 mi South 13.8 mph - 0.01 in   Overcast
8:54 AM 73.0 °F - 66.0 °F 79% 29.82 in 10.0 mi South 15.0 mph 21.9 mph 0.00 in   Overcast
9:54 AM 75.0 °F - 64.9 °F 71% 29.80 in 10.0 mi SSW 12.7 mph 25.3 mph N/A   Overcast
10:54 AM 81.0 °F 83.0 °F 66.0 °F 60% 29.81 in 10.0 mi SSW 19.6 mph 28.8 mph N/A   Partly Cloudy
11:47 AM 77.0 °F - 66.0 °F 69% 29.88 in 10.0 mi SSW 16.1 mph 26.5 mph N/A   Overcast
11:54 AM 77.0 °F - 66.0 °F 69% 29.87 in 10.0 mi SSW 11.5 mph 26.5 mph N/A   Overcast
12:54 PM 75.9 °F - 66.9 °F 74% 29.86 in 10.0 mi South 9.2 mph - N/A   Overcast
1:54 PM 75.9 °F - 68.0 °F 76% 29.85 in 10.0 mi South 6.9 mph - N/A   Overcast
2:54 PM 78.1 °F - 69.1 °F 74% 29.81 in 10.0 mi South 9.2 mph - N/A   Overcast
3:54 PM 77.0 °F - 69.1 °F 76% 29.83 in 10.0 mi Calm Calm - N/A   Overcast
4:29 PM 75.9 °F - 70.0 °F 82% 29.88 in 3.0 mi Calm Calm - 0.01 in Rain , Thunderstorm Light Rain
4:40 PM 75.0 °F - 71.1 °F 87% 29.87 in 2.5 mi Calm Calm - 0.07 in Rain , Thunderstorm Heavy Rain
4:50 PM 73.4 °F - 71.6 °F 94% 29.87 in 6.0 mi SE 4.6 mph - 0.07 in Rain , Thunderstorm Light Rain
4:54 PM 73.0 °F - 72.0 °F 96% 29.86 in 4.0 mi SE 5.8 mph - 0.07 in Rain , Thunderstorm Light Rain
5:33 PM 72.0 °F - 70.0 °F 93% 29.87 in 9.0 mi East 9.2 mph - 0.03 in Rain , Thunderstorm Light Rain
5:51 PM 71.6 °F - 69.8 °F 94% 29.86 in 2.5 mi SE 10.4 mph - 0.11 in Rain Rain
5:54 PM 71.1 °F - 69.1 °F 93% 29.85 in 2.0 mi ESE 9.2 mph - 0.14 in Rain , Thunderstorm Heavy Rain
6:08 PM 71.1 °F - 70.0 °F 96% 29.86 in 9.0 mi ESE 6.9 mph - 0.00 in Rain , Thunderstorm Light Rain
6:17 PM 71.1 °F - 70.0 °F 96% 29.88 in 10.0 mi NNE 13.8 mph - 0.00 in   Overcast
6:45 PM 68.0 °F - 64.9 °F 90% 29.85 in 10.0 mi East 10.4 mph - 0.01 in   Overcast
6:54 PM 68.0 °F - 64.9 °F 90% 29.83 in 10.0 mi ESE 13.8 mph - 0.01 in   Overcast
7:54 PM 68.0 °F - 66.0 °F 93% 29.83 in 10.0 mi SSE 10.4 mph 17.3 mph N/A   Mostly Cloudy
8:11 PM 68.0 °F - 64.9 °F 90% 29.85 in 10.0 mi ESE 8.1 mph - N/A   Mostly Cloudy
9:54 PM 71.1 °F - 68.0 °F 90% 29.84 in 10.0 mi SE 9.2 mph - N/A Thunderstorm Mostly Cloudy
10:18 PM 71.1 °F - 69.1 °F 93% 29.83 in 4.0 mi SSE 9.2 mph 17.3 mph 0.08 in Rain , Thunderstorm Light Thunderstorms and Rain
10:40 PM 71.1 °F - 69.1 °F 93% 29.82 in 10.0 mi SSE 10.4 mph - 0.08 in Thunderstorm Mostly Cloudy
10:51 PM 71.6 °F - 69.8 °F 94% 29.83 in 10.0 mi SW 9.2 mph - 0.08 in   Mostly Cloudy
10:54 PM 72.0 °F - 69.1 °F 91% 29.81 in 10.0 mi Variable 6.9 mph - 0.08 in   Mostly Cloudy
10:58 PM 72.0 °F - 69.1 °F 91% 29.84 in 10.0 mi West 11.5 mph - N/A   Mostly Cloudy
11:08 PM 73.0 °F - 70.0 °F 90% 29.82 in 10.0 mi South 11.5 mph 21.9 mph N/A   Scattered Clouds
11:12 PM 73.9 °F - 70.0 °F 87% 29.81 in 10.0 mi South 16.1 mph 23.0 mph N/A   Mostly Cloudy
11:24 PM 73.0 °F - 71.1 °F 93% 29.80 in 10.0 mi South 17.3 mph 23.0 mph N/A   Scattered Clouds
11:54 PM 73.9 °F - 72.0 °F 93% 29.79 in 10.0 mi SSW 9.2 mph - N/A   Mostly Cloudy